Tracking 19905 objects as of 18-Oct-2019
HD Live streaming from Space Station
objects crossing your sky now

COSMOS 1275 DEB

Track COSMOS 1275 DEB now!
10-day predictions


NORAD ID: 20089
Int'l Code: 1981-053MQ
Perigee: 861.1 km
Apogee: 935.2 km
Inclination: 82.8 °
Period: 102.8 minutes
Semi major axis: 7269 km
RCS: 0.0116 m2 (small)
Launch date: June 4, 1981
Source: Commonwealth of Independent States (former USSR) (CIS)
Launch site: PLESETSK MISSILE AND SPACE COMPLEX (PKMTR)

Note: This is SATELLITE DEBRIS
aabbcc
Your satellite tracking list
Your tracking list is empty




NASA's NSSDC Master Catalog

Two Line Element Set (TLE):
1 20089U 81053MK  19290.09030791  .00000452  00000-0  28927-3 0  9998
2 20089  82.7540 163.8306 0050962   6.2507 353.9288 14.00812107392754
Source of the keplerian elements: AFSPC